Showing default

FEMTO-1, 68419

Orbit data source: Space-Track

FEMTO-1, 68419 is a Bulgarian payload satellite in SSO that was launched on Mon, 30 Mar 2026 UTC via an FALCON 9 launch vehicle from the Air Force Western Test Range (AFWTR). Payload-class satellites include a variety of spacecraft equipped with specific instruments for various scientific and technological missions. These include communications satellites like Starlink; space stations such as the ISS; scientific satellites like the Hubble; Earth observation satellites from companies like Planet Labs, Umbra, and HawkEye 360; GPS; miniature CubeSats for education and research; and military/defense satellites.

Loading next visibility...
Identifier
68419, 2026-067D
Orbit
SSO
Country
Flag of BGBG / BGR
Related business
Manufacturer
Endurosat
Mission
Operational spacecraft
Bus & Motor
CUBESAT 1U?, Unknown motor
Mass
~1 kg wet, ~1 kg dry
Launch date (UTC)
2026-03-30 (3 months ago)
Launch vehicle
FALCON 9
Launch site
Air Force Western Test Range (AFWTR)
Object type
Payload
Rocket body
Debris
Shape & HBR
Unknown shape, 14.5 m
Radar Cross Section
Medium (>0.1 m² and <1 m²)

Expand to show TLE details & history
Last TLE update: 2 days ago

TLE from 2 days ago
0 FEMTO-1
1 68419U 26067D   26171.40144087  .00002289  00000-0  11290-3 0  9991
2 68419  97.4543 129.8956 0000536 145.1986 214.9283 15.18914727 12434
Epoch: 2026-06-20T09:38Z
TLE epoch observation values (Epoch: 2026-06-20T09:38:04.491Z)
Latitude
-0.00006°
Longitude
76.7603°
Altitude
512.51 km
Speed
7.607 km/s
True Right ascension
08h 39m 34s
True Declination
0° 00' 00"
Sunlit
Object was in daylight at epoch
Visualization orbit readout
Latitude
Unknown
Longitude
Unknown
Altitude
Unknown
Speed
Unknown
Apparent Right ascension
Unknown
Apparent Declination
Unknown
Sunlit
N/A
Visualization observer readout
Local Sidereal Time
17:57:56
Azimuth
Unknown
Elevation
Unknown
Doppler factor
Unknown
Orbital elements
Apogee altitude
506.458 km
Perigee altitude
505.72 km
Semi-major axis
6,884.226 km
Eccentricity
0.00005
Inclination
97.4543°
RAAN
129.8956°
Arg. of periapsis
145.1986°
True anomaly
214.92478°
Mean anomaly
214.9283°
Eccentric anomaly
214.92654°
Mean motion
3.7998 °/min
Orbital period
94.74 mins
BSTAR
0.0001129
Loading maneuver chart data...
Computing Atmospheric mass density...
Loading historical data...
Loading historical data...
Loading historical data...
Loading historical data...
Loading historical data...
Loading historical data...
Loading historical data...

Documentation

Showing up to 5 results
|